Weather History for KJAC - December, 2012

Change the Weather History Date:

Thursday, December 13, 2012

  Actual Average Record
Temperature  
Mean Temperature 26 °F -  
Max Temperature 30 °F - - ()
Min Temperature 21 °F - - ()
Degree Days  
Heating Degree Days 40    
Moisture  
Dew Point 24 °F    
Average Humidity 97    
Maximum Humidity 100    
Minimum Humidity 86    
Precipitation  
Precipitation 0.00 in - - ()
Sea Level Pressure  
Sea Level Pressure 29.87 in    
Wind  
Wind Speed 3 mph (NE)    
Max Wind Speed 7 mph    
Max Gust Speed -    
Visibility 8 miles    
Events Snow    
T = Trace of Precipitation, MM = Missing Value Source: NWS Daily Summary

Daily Weather History Graph

Daily Weather History Graph

Search for Another Location

Airport or City:

Trip Planner

Search our weather history database for the weather conditions in past years. The results will help you decide how hot, cold, wet, or windy it might be!

Date:

Astronomy

Dec. 13, 2012 Rise Set
Actual Time 7:48 AM MST 4:46 PM MST
Civil Twilight 7:15 AM MST 5:19 PM MST
Nautical Twilight 6:39 AM MST 5:55 PM MST
Astronomical Twilight 6:04 AM MST 6:30 PM MST
Moon 7:59 AM MST (12/13) 5:33 PM MST (12/13)
Length of Visible Light 10h 03m
Length of Day
8h 58m
New Moon, 0% of the Moon is Illuminated
Dec 13
New Moon
Dec 19
First Quarter
Dec 28
Full
Jan 4
Last Quarter
Jan 11
New

Hourly Weather History & Observations

Time (MST) Temp. Windchill Dew Point Humidity Pressure Visibility Wind Dir Wind Speed Gust Speed Precip Events Conditions
12:15 AM 24.8 °F 19.1 °F 21.2 °F 86% 29.86 in 10.0 mi East 4.6 mph - N/A   Overcast
12:35 AM 24.8 °F - 24.8 °F 100% 29.86 in 10.0 mi Calm Calm - N/A   Overcast
12:55 AM 24.8 °F 19.1 °F 24.8 °F 100% 29.86 in 4.0 mi North 4.6 mph - N/A   Mostly Cloudy
1:15 AM 23.0 °F 14.7 °F 21.2 °F 93% 29.86 in 7.0 mi North 6.9 mph - N/A   Mostly Cloudy
1:35 AM 21.2 °F 12.6 °F 21.2 °F 100% 29.86 in 10.0 mi North 6.9 mph - N/A   Overcast
1:55 AM 21.2 °F - 21.2 °F 100% 29.87 in 10.0 mi Calm Calm - N/A   Overcast
2:55 AM 21.2 °F 14.9 °F 21.2 °F 100% 29.87 in 3.0 mi North 4.6 mph - N/A   Mostly Cloudy
3:15 AM 21.2 °F 16.4 °F 21.2 °F 100% 29.88 in 5.0 mi North 3.5 mph - N/A   Mostly Cloudy
3:35 AM 21.2 °F - 21.2 °F 100% 29.87 in 8.0 mi Calm Calm - N/A   Overcast
3:55 AM 21.2 °F - 21.2 °F 100% 29.88 in 8.0 mi Calm Calm - N/A   Overcast
4:15 AM 21.2 °F 16.4 °F 21.2 °F 100% 29.88 in 6.0 mi NNW 3.5 mph - N/A   Overcast
4:35 AM 21.2 °F - 21.2 °F 100% 29.87 in 6.0 mi Calm Calm - N/A   Overcast
4:55 AM 21.2 °F 16.4 °F 21.2 °F 100% 29.87 in 5.0 mi NNW 3.5 mph - N/A   Overcast
5:15 AM 21.2 °F 16.4 °F 21.2 °F 100% 29.87 in 3.0 mi NNW 3.5 mph - N/A   Overcast
5:35 AM 21.2 °F 16.4 °F 21.2 °F 100% 29.88 in 8.0 mi North 3.5 mph - N/A   Overcast
5:55 AM 21.2 °F - 21.2 °F 100% 29.88 in 10.0 mi Calm Calm - N/A   Overcast
6:15 AM 21.2 °F - 21.2 °F 100% 29.89 in 9.0 mi Calm Calm - N/A   Overcast
6:35 AM 21.2 °F - 21.2 °F 100% 29.89 in 8.0 mi Calm Calm - N/A   Overcast
6:58 AM 21.2 °F - 21.2 °F 100% 29.89 in 10.0 mi Calm Calm - N/A Snow Snow Showers
7:51 AM 21.2 °F - 21.2 °F 100% 29.90 in 5.0 mi Calm Calm - N/A Snow Light Snow
8:51 AM 23.0 °F 17.0 °F 23.0 °F 100% 29.91 in 10.0 mi SSE 4.6 mph - N/A Snow Snow Showers
9:55 AM 24.8 °F 20.5 °F 24.8 °F 100% 29.91 in 6.0 mi SSE 3.5 mph - N/A   Mostly Cloudy
10:29 AM 26.6 °F 22.6 °F 24.8 °F 93% 29.91 in 1.8 mi SSE 3.5 mph - N/A Snow Light Snow
10:54 AM 26.6 °F 22.6 °F 26.6 °F 100% 29.91 in 1.5 mi SSE 3.5 mph - N/A Snow Light Snow
11:54 AM 28.4 °F - 26.6 °F 93% 29.90 in 10.0 mi Calm Calm - N/A Snow Snow
12:52 PM 30.2 °F - 28.4 °F 93% 29.89 in 10.0 mi Calm Calm - N/A Snow Snow
1:55 PM 30.2 °F - 28.4 °F 93% 29.87 in 6.0 mi Calm Calm - N/A Snow Light Snow
2:52 PM 30.2 °F 24.3 °F 28.4 °F 93% 29.86 in 10.0 mi SW 5.8 mph - N/A   Overcast
5:55 PM 30.2 °F 23.4 °F 26.6 °F 86% 29.85 in 10.0 mi South 6.9 mph - N/A   Mostly Cloudy
6:52 PM 28.4 °F 24.6 °F 26.6 °F 93% 29.85 in 8.0 mi South 3.5 mph - N/A   Overcast
7:53 PM 28.4 °F - 26.6 °F 93% 29.85 in 8.0 mi Calm Calm - N/A   Overcast
8:51 PM 28.4 °F - 26.6 °F 93% 29.85 in 10.0 mi Calm Calm - N/A   Overcast
8:55 PM 28.4 °F - 26.6 °F 93% 29.85 in 10.0 mi Calm Calm - N/A   Overcast
9:35 PM 28.4 °F - 26.6 °F 93% 29.84 in 10.0 mi Calm Calm - N/A   Overcast
9:55 PM 28.4 °F - 26.6 °F 93% 29.84 in 10.0 mi Calm Calm - N/A   Overcast
10:35 PM 26.6 °F - 26.6 °F 100% 29.84 in 10.0 mi Calm Calm - N/A   Overcast
10:55 PM 28.4 °F - 26.6 °F 93% 29.84 in 10.0 mi Calm Calm - N/A   Overcast
11:15 PM 28.4 °F 24.6 °F 26.6 °F 93% 29.83 in 10.0 mi ESE 3.5 mph - N/A   Overcast
11:35 PM 28.4 °F - 26.6 °F 93% 29.83 in 10.0 mi Calm Calm - N/A   Overcast
11:55 PM 28.4 °F - 26.6 °F 93% 29.83 in 10.0 mi Calm Calm - N/A   Overcast